Perth, Australia

2:37 PM AWST on April 29, 2017 (GMT +0800)
Perth International

Weather History for YPPH - August, 2013

Change the Weather History Date:

Tuesday, August 27, 2013

  Actual Average Record
Temperature  
Mean Temperature 54 °F -  
Max Temperature 61 °F 68 °F 77 °F (2015)
Min Temperature 47 °F 48 °F 37 °F (2001)
Degree Days  
Heating Degree Days 11    
Growing Degree Days 4 (Base 50)    
Moisture  
Dew Point 51 °F    
Average Humidity 91    
Maximum Humidity 100    
Minimum Humidity 72    
Precipitation  
Precipitation 0.87 in 0.10 in - ()
Sea Level Pressure  
Sea Level Pressure 29.94 in    
Wind  
Wind Speed 7 mph ()    
Max Wind Speed 16 mph    
Max Gust Speed -    
Visibility 6.8 miles    
Events Rain    
Averages and records for this station are not official NWS values.
T = Trace of Precipitation, MM = Missing Value Source: Averaged Metar Reports

Daily Weather History Graph

Daily Weather History Graph

Search for Another Location

Airport or City:

Trip Planner

Search our weather history database for the weather conditions in past years. The results will help you decide how hot, cold, wet, or windy it might be!

Date:

Astronomy

Aug. 27, 2013 Rise Set
Actual Time 6:39 AM AWST 5:56 PM AWST
Civil Twilight 6:14 AM AWST 6:21 PM AWST
Nautical Twilight 5:46 AM AWST 6:49 PM AWST
Astronomical Twilight 5:17 AM AWST 7:18 PM AWST
Moon No Moon Rise 10:19 AM AWST (8/27)
Length of Visible Light 12h 06m
Length of Day
11h 17m
Waning Gibbous, 62% of the Moon is Illuminated
Aug 27
Waning Gibbous
Aug 28
Last Quarter
Sep 5
New
Sep 13
First Quarter
Sep 19
Full

Hourly Weather History & Observations

Time (AWST) Temp. Dew Point Humidity Pressure Visibility Wind Dir Wind Speed Gust Speed Precip Events Conditions
12:00 AM 53 °F 51 °F 90% 30.05 in 16 mi East 5.8 mph - -   Partly Cloudy
12:00 AM 53.6 °F 51.8 °F 94% 30.04 in 6.2 mi East 5.8 mph - N/A   Mostly Cloudy
12:30 AM 51.8 °F 50.0 °F 94% 30.04 in 6.2 mi ENE 2.3 mph - N/A   Mostly Cloudy
1:00 AM 50.0 °F 50.0 °F 100% 30.04 in 6.2 mi NE 3.5 mph - N/A   Scattered Clouds
1:30 AM 48.2 °F 46.4 °F 93% 30.01 in 6.2 mi NE 2.3 mph - N/A   Partly Cloudy
2:00 AM 49 °F 48 °F 96% 30.02 in - ENE 6.9 mph - -  
2:00 AM 48.2 °F 48.2 °F 100% 30.01 in 6.2 mi ENE 6.9 mph - N/A   Partly Cloudy
2:30 AM 50.0 °F 48.2 °F 94% 30.01 in 6.2 mi NNE 8.1 mph - N/A   Partly Cloudy
3:00 AM 49 °F 48 °F 94% 30.01 in 16 mi NE 6.9 mph - -   Partly Cloudy
3:00 AM 50.0 °F 48.2 °F 94% 30.01 in - NE 6.9 mph - N/A   Clear
3:30 AM 48.2 °F 46.4 °F 93% 30.01 in - NNE 6.9 mph - N/A   Clear
4:00 AM 48.2 °F 46.4 °F 93% 29.98 in - NNE 8.1 mph - N/A   Clear
4:30 AM 48.2 °F 46.4 °F 93% 29.98 in - NNE 6.9 mph - N/A   Clear
5:00 AM 48 °F 46 °F 92% 29.99 in - NNE 6.9 mph - -  
5:00 AM 48.2 °F 46.4 °F 93% 29.98 in - NNE 6.9 mph - N/A   Clear
5:30 AM 48.2 °F 46.4 °F 93% 29.98 in - NE 8.1 mph - N/A   Clear
6:00 AM 48 °F 46 °F 90% 29.97 in 19 mi ENE 9.2 mph - -   Partly Cloudy
6:00 AM 48.2 °F 46.4 °F 93% 29.95 in - ENE 9.2 mph - N/A   Clear
7:00 AM 50.0 °F 48.2 °F 94% 29.95 in - NE 10.4 mph - N/A   Clear
7:30 AM 51.8 °F 48.2 °F 88% 29.95 in - NE 10.4 mph - N/A   Clear
8:00 AM 53 °F 49 °F 82% 29.98 in - NNE 6.9 mph - -  
8:00 AM 53.6 °F 50.0 °F 88% 29.98 in 6.2 mi NNE 6.9 mph - N/A Rain Light Rain Showers
8:30 AM 53.6 °F 50.0 °F 88% 29.98 in 6.2 mi NNE 10.4 mph - N/A Rain Light Rain Showers
9:00 AM 54 °F 51 °F 84% 29.99 in 10 mi NNE 10.4 mph - - Rain Light Rain Showers
9:00 AM 53.6 °F 50.0 °F 88% 29.98 in 6.2 mi NNE 10.4 mph - N/A Rain Light Rain Showers
9:30 AM 53.6 °F 50.0 °F 88% 29.98 in 3.1 mi NNE 10.4 mph - N/A Rain Light Rain Showers
9:43 AM 53.6 °F 51.8 °F 94% 29.98 in 1.9 mi NNE 9.2 mph - N/A Rain Rain Showers
10:00 AM 53.6 °F 51.8 °F 94% 29.98 in 6.2 mi North 9.2 mph - N/A Rain Light Rain Showers
10:26 AM 53.6 °F 51.8 °F 94% 29.98 in 1.9 mi North 10.4 mph - N/A Rain Rain Showers
10:30 AM 53.6 °F 51.8 °F 94% 29.98 in 1.9 mi North 9.2 mph - N/A Rain Rain Showers
10:47 AM 53.6 °F 53.6 °F 100% 29.98 in 0.9 mi North 9.2 mph - N/A Rain Rain Showers
11:00 AM 54 °F 53 °F 94% 29.98 in - North 11.5 mph - -  
11:00 AM 53.6 °F 53.6 °F 100% 29.98 in 3.1 mi North 11.5 mph - N/A Rain Light Rain Showers
11:30 AM 55.4 °F 53.6 °F 94% 29.98 in 6.2 mi North 11.5 mph - N/A Rain Light Rain Showers
11:42 AM 55.4 °F 53.6 °F 94% 29.98 in 3.1 mi North 12.7 mph - N/A Rain Light Rain Showers
12:00 PM 54 °F 52 °F 89% 29.97 in 6 mi North 6.9 mph - - Rain Light Rain Showers
12:00 PM 53.6 °F 51.8 °F 94% 29.95 in 6.2 mi North 6.9 mph - N/A Rain Light Rain Showers
12:30 PM 55.4 °F 53.6 °F 94% 29.92 in 6.2 mi NNE 9.2 mph - N/A   Mostly Cloudy
1:00 PM 57.2 °F 53.6 °F 88% 29.92 in 6.2 mi North 16.1 mph - N/A   Mostly Cloudy
1:22 PM 57.2 °F 53.6 °F 88% 29.86 in 6.2 mi ENE 12.7 mph - N/A   Mostly Cloudy
1:30 PM 59.0 °F 53.6 °F 82% 29.89 in 6.2 mi NE 12.7 mph - N/A   Mostly Cloudy
2:00 PM 60.8 °F 51.8 °F 72% 29.89 in 6.2 mi North 9.2 mph - N/A   Mostly Cloudy
2:30 PM 59.0 °F 51.8 °F 77% 29.89 in 6.2 mi NNE 9.2 mph - N/A Rain Light Rain Showers
2:39 PM 59.0 °F 51.8 °F 77% 29.89 in 3.1 mi North 8.1 mph - N/A Rain Light Rain Showers
2:50 PM 57.2 °F 53.6 °F 88% 29.89 in 1.2 mi SW 9.2 mph - N/A Rain Rain Showers
3:00 PM 56 °F 54 °F 91% 29.90 in 16 mi WSW 5.8 mph - - Rain Light Rain Showers
3:00 PM 57.2 °F 53.6 °F 88% 29.89 in 6.2 mi WSW 5.8 mph - N/A Rain Light Rain Showers
3:30 PM 57.2 °F 53.6 °F 88% 29.89 in 6.2 mi North 8.1 mph - N/A   Mostly Cloudy
4:00 PM 55.4 °F 51.8 °F 88% 29.89 in 6.2 mi North 9.2 mph - N/A   Mostly Cloudy
4:30 PM 55.4 °F 51.8 °F 88% 29.89 in 6.2 mi North 6.9 mph - N/A   Mostly Cloudy
5:00 PM 56 °F 53 °F 86% 29.90 in - NNE 6.9 mph - -  
5:00 PM 55.4 °F 53.6 °F 94% 29.89 in 6.2 mi NNE 6.9 mph - N/A   Mostly Cloudy
5:30 PM 55.4 °F 51.8 °F 88% 29.89 in 6.2 mi NE 6.9 mph - N/A   Mostly Cloudy
6:00 PM 54 °F 51 °F 88% 29.88 in 16 mi East 6.9 mph - -   Partly Cloudy
6:00 PM 53.6 °F 51.8 °F 94% 29.86 in 6.2 mi East 6.9 mph - N/A   Mostly Cloudy
6:30 PM 53.6 °F 50.0 °F 88% 29.89 in 6.2 mi NE 8.1 mph - N/A   Scattered Clouds
7:00 PM 53.6 °F 51.8 °F 94% 29.89 in 6.2 mi NE 9.2 mph - N/A   Scattered Clouds
7:30 PM 53.6 °F 51.8 °F 94% 29.89 in 6.2 mi NE 9.2 mph - N/A   Scattered Clouds
8:00 PM 54 °F 51 °F 86% 29.90 in - NNE 5.8 mph - -  
8:00 PM 53.6 °F 51.8 °F 94% 29.89 in 6.2 mi NNE 5.8 mph - N/A   Scattered Clouds
8:30 PM 53.6 °F 51.8 °F 94% 29.89 in 6.2 mi NNE 9.2 mph - N/A   Mostly Cloudy
9:00 PM 54 °F 51 °F 87% 29.89 in 16 mi NNE 10.4 mph - -   Partly Cloudy
9:00 PM 53.6 °F 51.8 °F 94% 29.89 in 6.2 mi NNE 10.4 mph - N/A   Mostly Cloudy
9:30 PM 53.6 °F 51.8 °F 94% 29.89 in 6.2 mi NNE 6.9 mph - N/A   Mostly Cloudy
10:00 PM 53.6 °F 50.0 °F 88% 29.86 in 6.2 mi NNE 6.9 mph - N/A   Mostly Cloudy
10:30 PM 53.6 °F 50.0 °F 88% 29.86 in 6.2 mi NNE 6.9 mph - N/A   Mostly Cloudy
11:00 PM 54 °F 51 °F 84% 29.86 in - NE 13.4 mph - -  
11:00 PM 53.6 °F 50.0 °F 88% 29.86 in 6.2 mi NE 6.9 mph - N/A   Overcast
11:30 PM 53.6 °F 51.8 °F 94% 29.86 in 6.2 mi South 4.6 mph - N/A Rain Light Rain Showers